Location: Cardiff
(53.7833°N, 113.6000°W)
Time: 21:21:28
(UTC+00:00)

Oscar 19 - Pass Details

Date: 12 December 2023
Orbit: 771 x 789 km, 98.9° (Epoch: 04 March)

Event Time Altitude Azimuth Distance (km) Brightness Sun altitude
Rises 14:50:06 0° 8° (N) 3,279 13.6 -7.2°
Reaches altitude 10° 14:53:34 10° 343° (NNW) 2,350 12.7 -6.8°
Maximum altitude 14:56:02 14° 314° (NW) 2,103 12.3 -6.5°
Drops below altitude 10° 14:58:30 10° 286° (WNW) 2,350 12.5 -6.2°
Sets 15:01:59 0° 261° (W) 3,278 13.4 -5.7°
